This is the latest recevied weather packets stored in our database for station/object K5GTX. If no packets are shown the sender has not sent any weather packets the latest 10 day(s).
| Time | Temp. | Humidity | Pressure | Rain* | Wind** | Luminosity | Snow |
|---|---|---|---|---|---|---|---|
| 1778099862 | 15° C | 99% | 1020.8 hPa | 0 mm | - | 240 W/m² | - |
| 1778099559 | 15.56° C | 99% | 1021 hPa | 0 mm | - | 193 W/m² | - |
| 1778099257 | 15° C | 99% | 1021.2 hPa | 0 mm | - | 201 W/m² | - |
| 1778098953 | 15° C | 99% | 1021.2 hPa | 0 mm | - | 220 W/m² | - |
| 1778098650 | 15° C | 99% | 1020.9 hPa | 0 mm | - | 287 W/m² | - |
| 1778098347 | 15° C | 99% | 1021.1 hPa | 0 mm | - | 248 W/m² | - |
| 1778098044 | 15.56° C | 99% | 1021 hPa | 0 mm | - | 354 W/m² | - |
| 1778097741 | 15° C | 99% | 1020.8 hPa | 0 mm | - | 308 W/m² | - |
| 1778097436 | 15° C | 99% | 1021.3 hPa | 0 mm | - | 229 W/m² | - |
| 1778097133 | 14.44° C | 99% | 1021.5 hPa | 0 mm | - | 219 W/m² | - |
| 1778096825 | 13.89° C | 99% | 1021.3 hPa | 0 mm | - | 160 W/m² | - |
| 1778096521 | 13.89° C | 99% | 1021.6 hPa | 0 mm | - | 117 W/m² | - |
| 1778096219 | 13.89° C | 99% | 1021.7 hPa | 0 mm | - | 97 W/m² | - |
| 1778095916 | 13.89° C | 99% | 1021.7 hPa | 0 mm | - | 93 W/m² | - |
| 1778095612 | 14.44° C | 99% | 1021.3 hPa | 0 mm | - | 111 W/m² | - |
| 1778095309 | 13.89° C | 99% | 1021.3 hPa | 0 mm | - | 126 W/m² | - |
| 1778095006 | 13.89° C | 99% | 1021.4 hPa | 0 mm | - | 100 W/m² | - |
| 1778094702 | 13.89° C | 99% | 1021.8 hPa | 0 mm | - | 91 W/m² | - |
| 1778094399 | 13.89° C | 99% | 1022 hPa | 0 mm | - | 32 W/m² | - |
| 1778094096 | 13.89° C | 99% | 1021.6 hPa | 0 mm | - | 33 W/m² | - |
| 1778093793 | 13.89° C | 99% | 1021.6 hPa | 0 mm | - | 37 W/m² | - |
| 1778093489 | 13.89° C | 99% | 1021.4 hPa | 0 mm | - | 49 W/m² | - |
| 1778093187 | 13.89° C | 99% | 1021.1 hPa | 0 mm | - | 182 W/m² | - |
| 1778092884 | 13.33° C | 99% | 1021 hPa | 0 mm | - | 196 W/m² | - |
| 1778092581 | 13.33° C | 99% | 1020.5 hPa | 0 mm | - | 150 W/m² | - |
* Rain latest hour (hover to see other rain measurements)
** Current wind speed in m/s (hover to see current wind gust speed)